New York Downtown Manhattan/w, NY

4:38 PM EST on December 11, 2019 (GMT -0500)
New York Downtown Manhattan/w

Weather History for KJRB - August, 2019

Change the Weather History Date:

Thursday, August 1, 2019

  Actual Average (WUND) Record (WUND)
Temperature  
Mean Temperature 82 °F -  
Max Temperature 91 °F - - (-1)
Min Temperature 73 °F - - (-1)
Cooling Degree Days 16    
Growing Degree Days 32 (Base 50)    
Moisture  
Dew Point 63 °F    
Average Humidity 60    
Maximum Humidity 93    
Minimum Humidity 27    
Precipitation  
Precipitation 0.00 in - - ()
Sea Level Pressure  
Sea Level Pressure 30.08 in    
Wind  
Wind Speed 3 mph (SW)    
Max Wind Speed 12 mph    
Max Gust Speed -    
Visibility 10 miles    
Events      
Averages and records for this station are not official NWS values.
T = Trace of Precipitation, MM = Missing Value Source: NWS Daily Summary

Daily Weather History Graph

Daily Weather History Graph

Search for Another Location

Airport or City:

Astronomy

Aug. 01, 2019 Rise Set
Actual Time 5:52 AM EDT 8:11 PM EDT
Civil Twilight 5:21 AM EDT 8:42 PM EDT
Nautical Twilight 4:43 AM EDT 9:20 PM EDT
Astronomical Twilight 4:01 AM EDT 10:01 PM EDT
Moon 6:13 AM EDT (8/1) 8:56 PM EDT (8/1)
Length of Visible Light 15h 20m
Length of Day
14h 19m
New Moon, 0% of the Moon is Illuminated
Aug 1
New Moon
Aug 7
First Quarter
Aug 15
Full
Aug 23
Last Quarter
Aug 30
New

Hourly Weather History & Observations

Time (EDT) Temp. Heat Index Dew Point Humidity Pressure Visibility Wind Dir Wind Speed Gust Speed Precip Events Conditions
12:56 AM 73.9 °F - 70.0 °F 87% 30.05 in 10.0 mi Calm Calm - N/A   Clear
1:56 AM 73.9 °F - 71.1 °F 91% 30.05 in 7.0 mi West 5.8 mph - N/A   Scattered Clouds
2:56 AM 73.0 °F - 71.1 °F 93% 30.04 in 10.0 mi WSW 5.8 mph - N/A   Clear
3:56 AM 73.9 °F - 69.1 °F 85% 30.04 in 10.0 mi Calm Calm - N/A   Clear
4:56 AM 73.0 °F - 68.0 °F 84% 30.04 in 10.0 mi Calm Calm - N/A   Clear
5:56 AM 73.0 °F - 68.0 °F 84% 30.06 in 10.0 mi Calm Calm - N/A   Clear
6:56 AM 73.9 °F - 69.1 °F 85% 30.07 in 10.0 mi Calm Calm - N/A   Clear
7:56 AM 75.0 °F - 69.1 °F 82% 30.09 in 10.0 mi Calm Calm - N/A   Clear
8:56 AM 77.0 °F - 64.9 °F 66% 30.09 in 10.0 mi ENE 5.8 mph - N/A   Clear
9:56 AM 82.0 °F 83.8 °F 64.9 °F 56% 30.09 in 10.0 mi ENE 6.9 mph - N/A   Partly Cloudy
10:56 AM 84.0 °F 84.9 °F 63.0 °F 49% 30.11 in 10.0 mi ENE 11.5 mph - N/A   Scattered Clouds
11:56 AM 86.0 °F 85.7 °F 60.1 °F 41% 30.11 in 9.0 mi Calm Calm - N/A   Mostly Cloudy
12:56 PM 89.1 °F - 51.1 °F 27% 30.11 in 10.0 mi WSW 4.6 mph - N/A   Clear
1:56 PM 88.0 °F 86.5 °F 55.9 °F 34% 30.10 in 10.0 mi South 4.6 mph - N/A   Clear
2:56 PM 90.0 °F 89.1 °F 59.0 °F 35% 30.09 in 10.0 mi Variable 4.6 mph - N/A   Clear
3:56 PM 88.0 °F 87.9 °F 61.0 °F 40% 30.07 in 10.0 mi Variable 3.5 mph - N/A   Partly Cloudy
4:56 PM 86.0 °F 86.3 °F 62.1 °F 44% 30.06 in 10.0 mi Variable 6.9 mph - N/A   Clear
5:56 PM 86.0 °F 86.1 °F 61.0 °F 43% 30.05 in 10.0 mi WSW 6.9 mph - N/A   Clear
6:56 PM 84.0 °F 84.5 °F 62.1 °F 47% 30.05 in 10.0 mi WSW 4.6 mph - N/A   Partly Cloudy
7:56 PM 82.9 °F 84.0 °F 63.0 °F 51% 30.07 in 10.0 mi SSW 5.8 mph - N/A   Mostly Cloudy
8:56 PM 80.1 °F 80.6 °F 57.9 °F 47% 30.09 in 10.0 mi Variable 4.6 mph - N/A   Mostly Cloudy
9:56 PM 79.0 °F - 61.0 °F 54% 30.10 in 10.0 mi WSW 4.6 mph - N/A   Partly Cloudy
10:56 PM 78.1 °F - 59.0 °F 52% 30.10 in 10.0 mi Calm Calm - N/A   Clear
11:56 PM 77.0 °F - 59.0 °F 54% 30.11 in 10.0 mi Calm Calm - N/A   Clear